SCP
0 0 0 0 0 0 0 0 0 0 0 0 0 0 0 0 0 0 0 0 0 0 0 0 0 0 0
0 0 0 0 0 0 0 0 0 0 0 0 0 0 0 0 0 0 0 0 0 0 0 0 0 0 0
0 0 0 0 0 0 0 0 0 0 0 0 0 0 0 0 0 0 0 0 0 0 0 0 0 0 0
0 0 0 0 0 0 0 0 0 0 0 0 0 0 0 0 0 0 0 0 0 0 0 0 0 0 0
0 0 0 0 0 0 0 0 0 0 0 0 0 0 0 0 0 0 0 0 0 0 0 0 0 0 0
0 0 0 0 0 0 0 0 0 0 0 0 0 0 0 0 0 0 0 0 0 0 0 0 0 0 0
0 0 0 0 0 0 0 0 0 0 0 0 0 0 0 0 0 0 0 0 0 0 0 0 0 0 0
0 0 0 0 0 0 0 0 0 0 0 0 0 0 0 0 0 -0 -0 -0 0 0 0 0 0 0 0
0 0 0 0 0 0 0 0 0 0 0 0 0 0 0 0 0 -0 -0 -0 0 0 0 0 0 0 0
0 0 0 0 0 0 0 0 0 0 0 0 0 0 0 0 0 0 0 0 0 0 0 0 0 0 0
0 0 0 0 0 0 0 0 0 0 0 0 0 0 0 0 0 0 0 0 0 0 -0 0 0 0 0
0 0 0 0 0 0 0 0 0 0 0 0 0 0 0 0 0 0 0 0 0 -0 0 0 0 0 0
0 0 0 0 0 0 0 0 0 0 0 0 0 0 0 0 0 0 0 0 0 -0 -0 -0 0 0 0
0 0 0 0 0 0 0 0 0 0 0 0 0 0 0 0 0 0 0 0 0 0 0 -0 -0 -0 0
0 0 0 0 0 0 0 0 0 0 0 0 0 0 0 0 0 0 0 0 0 0 -0 0 0 0 0
0 0 0 0 0 0 0 0 0 0 0 0 0 0 0 0 0 0 0 0 0 0 0 0 0 0 0
Wind_Speed_500mb
13 11 9 8 7 7 5 5 6 7 9 10 13 17 19 20 21 23 24 26 27 27 27 25 26 27 31
17 14 12 9 8 7 5 5 6 6 7 12 16 18 21 25 27 27 28 29 29 28 29 27 26 24 26
22 18 15 14 12 10 8 7 7 6 9 11 15 19 24 27 28 29 30 30 29 29 27 28 28 27 26
29 25 21 19 18 17 15 12 9 6 7 10 13 17 20 23 27 29 29 28 29 29 29 28 29 29 30
35 30 28 26 24 22 18 16 14 11 11 13 16 19 22 24 28 30 31 31 32 34 35 35 36 36 36
41 37 36 33 30 27 24 22 19 17 17 18 20 21 24 28 32 34 34 33 32 32 35 35 37 40 42
47 45 42 39 35 31 30 27 24 22 21 21 22 23 25 30 34 39 40 39 37 37 37 38 38 38 39
52 50 46 42 40 37 34 28 26 25 23 23 22 24 27 32 38 44 46 46 45 44 41 39 39 39 40
58 56 53 50 46 44 40 35 33 30 28 26 26 27 29 34 39 44 45 44 45 46 48 48 48 48 47
63 61 57 54 49 47 43 39 37 33 28 27 28 28 28 32 37 43 46 47 48 51 55 57 58 58 56
66 63 60 55 52 49 45 42 40 35 33 31 28 28 29 32 36 42 45 47 50 53 57 59 61 62 58
66 64 63 60 57 56 51 50 46 43 38 32 30 29 30 33 38 43 44 44 48 56 62 64 62 57 60
76 76 73 70 64 62 57 56 51 47 40 35 35 34 34 35 40 43 45 47 48 54 63 70 63 59 32
79 77 73 68 67 62 60 60 56 51 45 42 39 36 36 37 41 43 47 47 45 46 53 54 38 55 20
80 77 76 72 70 71 73 70 64 57 51 46 41 40 39 40 42 45 45 43 42 44 40 38 22 17 74
80 83 87 89 86 83 75 68 65 59 54 50 46 44 43 42 43 45 43 41 41 43 45 45 46 49 33
Wind_Direction_500mb
227 241 249 264 272 283 300 325 335 354 10 13 12 9 6 1 358 354 349 344 338 335 332 328 318 306 295
233 235 246 254 274 293 310 318 327 332 354 4 7 0 355 351 348 343 339 337 336 335 332 330 325 315 311
233 241 243 250 258 262 263 274 288 329 349 359 355 353 351 348 343 338 333 328 325 323 322 321 320 318 313
227 230 234 241 248 253 259 264 269 287 320 331 340 342 338 333 328 324 321 317 313 312 312 314 313 314 313
230 230 233 234 237 243 246 248 254 265 286 298 305 311 319 323 324 323 320 318 316 315 316 318 317 317 316
227 227 229 231 233 235 237 239 242 253 266 279 290 304 311 317 324 327 328 326 324 323 322 322 322 322 319
225 226 228 229 231 233 232 233 241 253 265 274 286 296 307 319 328 333 335 333 329 329 329 325 322 318 316
224 227 229 229 232 233 235 235 241 249 257 267 280 290 306 321 332 337 337 336 334 331 329 326 322 319 318
222 227 227 227 228 230 231 233 239 245 252 264 277 291 308 322 334 337 334 330 327 327 327 326 324 323 322
222 225 226 227 227 229 231 234 240 247 256 265 274 289 310 326 329 329 328 326 327 326 326 327 326 327 324
221 224 227 228 230 232 236 240 244 249 253 261 275 291 306 314 318 319 323 324 325 324 323 324 326 328 327
222 223 226 227 229 232 234 238 241 244 250 260 274 285 295 304 309 313 319 320 322 325 325 325 326 330 328
220 222 225 228 229 232 234 238 241 244 249 259 267 275 284 293 301 308 313 317 324 325 325 324 326 334 330
226 227 229 232 232 235 236 240 242 244 247 253 262 271 280 289 295 305 309 315 320 324 323 327 326 335 315
229 227 228 229 231 231 233 236 238 240 243 249 257 267 275 283 294 300 302 307 311 319 319 317 324 304 311
229 229 230 234 233 236 240 240 238 239 242 245 252 263 274 284 290 292 298 304 303 309 313 310 303 303 314
Wind_Speed_850mb
13 11 9 8 7 7 5 5 6 7 9 10 13 17 19 20 21 23 24 26 27 27 27 25 26 27 31
17 14 12 9 8 7 5 5 6 6 7 12 16 18 21 25 27 27 28 29 29 28 29 27 26 24 26
22 18 15 14 12 10 8 7 7 6 9 11 15 19 24 27 28 29 30 30 29 29 27 28 28 27 26
29 25 21 19 18 17 15 12 9 6 7 10 13 17 20 23 27 29 29 28 29 29 29 28 29 29 30
35 30 28 26 24 22 18 16 14 11 11 13 16 19 22 24 28 30 31 31 32 34 35 35 36 36 36
41 37 36 33 30 27 24 22 19 17 17 18 20 21 24 28 32 34 34 33 32 32 35 35 37 40 42
47 45 42 39 35 31 30 27 24 22 21 21 22 23 25 30 34 39 40 39 37 37 37 38 38 38 39
52 50 46 42 40 37 34 28 26 25 23 23 22 24 27 32 38 44 46 46 45 44 41 39 39 39 40
58 56 53 50 46 44 40 35 33 30 28 26 26 27 29 34 39 44 45 44 45 46 48 48 48 48 47
63 61 57 54 49 47 43 39 37 33 28 27 28 28 28 32 37 43 46 47 48 51 55 57 58 58 56
66 63 60 55 52 49 45 42 40 35 33 31 28 28 29 32 36 42 45 47 50 53 57 59 61 62 58
66 64 63 60 57 56 51 50 46 43 38 32 30 29 30 33 38 43 44 44 48 56 62 64 62 57 60
76 76 73 70 64 62 57 56 51 47 40 35 35 34 34 35 40 43 45 47 48 54 63 70 63 59 32
79 77 73 68 67 62 60 60 56 51 45 42 39 36 36 37 41 43 47 47 45 46 53 54 38 55 20
80 77 76 72 70 71 73 70 64 57 51 46 41 40 39 40 42 45 45 43 42 44 40 38 22 17 74
80 83 87 89 86 83 75 68 65 59 54 50 46 44 43 42 43 45 43 41 41 43 45 45 46 49 33
Wind_Direction_850mb
227 241 249 264 272 283 300 325 335 354 10 13 12 9 6 1 358 354 349 344 338 335 332 328 318 306 295
233 235 246 254 274 293 310 318 327 332 354 4 7 0 355 351 348 343 339 337 336 335 332 330 325 315 311
233 241 243 250 258 262 263 274 288 329 349 359 355 353 351 348 343 338 333 328 325 323 322 321 320 318 313
227 230 234 241 248 253 259 264 269 287 320 331 340 342 338 333 328 324 321 317 313 312 312 314 313 314 313
230 230 233 234 237 243 246 248 254 265 286 298 305 311 319 323 324 323 320 318 316 315 316 318 317 317 316
227 227 229 231 233 235 237 239 242 253 266 279 290 304 311 317 324 327 328 326 324 323 322 322 322 322 319
225 226 228 229 231 233 232 233 241 253 265 274 286 296 307 319 328 333 335 333 329 329 329 325 322 318 316
224 227 229 229 232 233 235 235 241 249 257 267 280 290 306 321 332 337 337 336 334 331 329 326 322 319 318
222 227 227 227 228 230 231 233 239 245 252 264 277 291 308 322 334 337 334 330 327 327 327 326 324 323 322
222 225 226 227 227 229 231 234 240 247 256 265 274 289 310 326 329 329 328 326 327 326 326 327 326 327 324
221 224 227 228 230 232 236 240 244 249 253 261 275 291 306 314 318 319 323 324 325 324 323 324 326 328 327
222 223 226 227 229 232 234 238 241 244 250 260 274 285 295 304 309 313 319 320 322 325 325 325 326 330 328
220 222 225 228 229 232 234 238 241 244 249 259 267 275 284 293 301 308 313 317 324 325 325 324 326 334 330
226 227 229 232 232 235 236 240 242 244 247 253 262 271 280 289 295 305 309 315 320 324 323 327 326 335 315
229 227 228 229 231 231 233 236 238 240 243 249 257 267 275 283 294 300 302 307 311 319 319 317 324 304 311
229 229 230 234 233 236 240 240 238 239 242 245 252 263 274 284 290 292 298 304 303 309 313 310 303 303 314